Flag for U.S.A. Weather past 2 weeks in Wailuku, Hawaii, U.S.A.

Now
73 °F

Clear.


Feels Like: 73 °F
Forecast: 73 / 88 °F
Wind: No wind

Location: Kahului Airport

Current Time: Aug 30, 2014 at 11:01:41 PM

Latest Report: Aug 30, 2014 at 9:54 PM


Visibility: 10 mi

Pressure: 29.99 "Hg

Humidity: 79%

Dew point: 66 °F

Location of WailukuLocation

Historic Weather in Wailuku — Graph

°F

Wailuku temperature yesterday

Maximum temperature yesterday: 87 °F (at 11:54 AM)
Minimum temperature yesterday: 69 °F (at 5:54 AM)
Average temperature yesterday: 79 °F

Past Weeks' High & Low Weather Summary

 TemperatureHumidityPressure
High90 °F (Aug 21, 2:54 PM)94% (Aug 21, 4:06 AM)30.06 "Hg (Aug 21, 4:06 AM)
Low69 °F (Aug 29, 5:54 AM)39% (Aug 17, 12:54 PM)29.86 "Hg (Aug 28, 3:54 PM)
Average80 °F68%29.97 "Hg
* Reported Aug 15 9:54 PM — Aug 30 9:54 PM, Wailuku, Weather by CustomWeather, © 2014

Note: Actual official high and low records may vary slightly from our data, if they occured in-between our weather recording intervals... More about our weather records

Advertising

Wailuku weather history for previous 24 hours

 ConditionsComfort  
Time TempWeatherWind HumidityBarometerVisibility
9:54 PM
Aug 30
73 °FClear.No wind79%29.99 "Hg10 mi
8:54 PM76 °FClear.3 mph72%29.98 "Hg10 mi
7:54 PM77 °FClear.8 mph71%29.96 "Hg10 mi
6:54 PM79 °FPassing clouds.12 mph69%29.95 "Hg10 mi
5:54 PM81 °FScattered clouds.12 mph62%29.93 "Hg10 mi
4:54 PM84 °FScattered clouds.15 mph59%29.92 "Hg10 mi
3:54 PM85 °FScattered clouds.13 mph55%29.93 "Hg10 mi
2:54 PM85 °FScattered clouds.15 mph55%29.93 "Hg10 mi
1:54 PM86 °FScattered clouds.13 mph55%29.94 "Hg10 mi
12:54 PM88 °FScattered clouds.15 mph52%29.95 "Hg10 mi
11:54 AM85 °FScattered clouds.10 mph55%29.96 "Hg10 mi
10:54 AM86 °FScattered clouds.12 mph57%29.98 "Hg10 mi
9:54 AM84 °FPassing clouds.13 mph59%29.99 "Hg10 mi
8:54 AM81 °FPassing clouds.10 mph65%29.98 "Hg10 mi
7:54 AM76 °FSunny.3 mph74%29.97 "Hg10 mi
6:54 AM72 °FSunny.5 mph76%29.96 "Hg10 mi
5:54 AM69 °FPassing clouds.No wind84%29.94 "Hg10 mi
4:54 AM72 °FClear.3 mph78%29.93 "Hg10 mi
3:54 AM73 °FClear.6 mph79%29.92 "Hg10 mi
2:54 AM73 °FClear.No wind79%29.92 "Hg10 mi
1:54 AM71 °FClear.No wind81%29.93 "Hg10 mi
12:54 AM73 °FClear.3 mph81%29.94 "Hg10 mi
11:54 PM
Aug 29
75 °FClear.5 mph79%29.94 "Hg10 mi
Weather by CustomWeather, © 2014

See weather overviewHow to use our weather pages